PBO Station Position Time Series. Reference Frame : NAM14
Format Version,1.1.0
4-character ID,SC04
Station name,SC04_PNGA_WA2002
Begin Date, 2003-06-15
End Date, 2019-10-07
Release Date, 2019-10-08
Reference position, 48.9231637074 North Latitude, -123.7041296908 East Longitude, 14.86977 meters elevation,
Date, North (mm), East (mm), Vertical (mm), North Std. Deviation (mm), East Std. Deviation (mm),              Vertical Std. Deviation (mm), Quality,
2003-06-15,0.00, 0.00, 0.00, 2.37, 1.58, 7.26, repro,
2003-06-16,-0.66, 0.63, 1.06, 2.39, 1.58, 7.29, repro,
2003-06-17,-1.23, -0.17, -1.39, 2.58, 1.70, 7.64, repro,
2003-06-18,-0.48, -1.16, -4.72, 2.38, 1.60, 7.30, repro,
2003-06-19,-1.90, 0.67, 3.85, 2.33, 1.58, 7.27, repro,
2003-06-20,-0.28, -1.70, 3.65, 2.33, 1.57, 7.21, repro,
2003-06-21,-0.94, 0.04, -2.33, 2.39, 1.61, 7.35, repro,
2003-06-22,-0.15, 0.05, 3.78, 2.35, 1.57, 7.19, repro,
2003-06-23,-0.88, -0.18, 9.02, 2.37, 1.59, 7.31, repro,
2003-06-24,-2.15, 0.74, 7.89, 2.71, 1.83, 8.20, repro,
2003-06-25,-0.26, 0.18, 1.44, 2.56, 1.70, 7.91, repro,
2003-06-26,-0.02, -0.00, -1.11, 2.42, 1.61, 7.43, repro,
2003-06-27,1.77, 0.48, 12.09, 2.42, 1.61, 7.44, repro,
2003-06-28,-1.01, -0.26, 6.71, 2.47, 1.64, 7.58, repro,
2003-06-29,-0.25, -1.49, 7.51, 2.41, 1.61, 7.40, repro,
2003-06-30,0.87, 1.40, 0.01, 2.46, 1.66, 7.68, repro,
2003-07-01,-2.97, -1.37, -0.14, 2.39, 1.61, 7.41, repro,
2003-07-02,1.81, -0.22, 1.47, 2.42, 1.60, 7.40, repro,
2003-07-03,0.37, -0.05, 3.74, 2.45, 1.65, 7.74, repro,
2003-07-04,-0.73, -0.16, -2.64, 2.48, 1.67, 7.81, repro,
2003-07-05,0.98, -0.29, -0.55, 2.50, 1.67, 7.61, repro,
2003-07-06,1.52, -0.59, 1.00, 2.38, 1.60, 7.37, repro,
2003-07-07,-0.95, -0.00, 12.01, 2.40, 1.61, 7.44, repro,
2003-07-08,2.43, -1.40, 4.47, 2.44, 1.64, 7.56, repro,
2003-07-09,0.95, 0.01, 7.76, 2.44, 1.62, 7.49, repro,
2003-07-10,0.68, -0.68, 8.42, 2.39, 1.61, 7.41, repro,
2003-07-11,0.20, 0.34, 7.83, 2.96, 1.85, 8.63, repro,
2003-07-12,-1.14, -0.28, 6.21, 2.45, 1.66, 7.64, repro,
2003-07-13,2.26, -1.42, 7.08, 2.51, 1.66, 7.63, repro,
2003-07-14,1.58, 4.28, 7.13, 2.53, 1.66, 7.84, repro,
2003-07-15,1.62, 1.72, 14.27, 3.32, 2.12, 9.81, repro,
2003-07-16,1.10, -1.02, 1.33, 2.48, 1.66, 7.60, repro,
2003-07-17,0.67, -1.97, 5.45, 2.53, 1.67, 7.64, repro,
2003-07-18,1.90, -1.32, 1.46, 2.40, 1.61, 7.43, repro,
2003-07-19,3.16, -1.36, -3.19, 2.42, 1.63, 7.52, repro,
2003-07-20,2.28, -0.28, 3.40, 2.46, 1.64, 7.61, repro,
2003-07-21,1.36, -0.90, -3.95, 2.49, 1.67, 7.61, repro,
2003-07-22,0.45, -0.57, 3.31, 2.41, 1.62, 7.47, repro,
2003-07-23,-0.17, -0.88, 5.10, 2.38, 1.58, 7.28, repro,
2003-07-24,0.64, -0.69, 9.29, 2.44, 1.61, 7.31, repro,
2003-07-25,0.51, -1.74, 5.87, 2.43, 1.64, 7.51, repro,
2003-07-26,2.52, -3.26, 13.68, 3.19, 2.07, 9.45, repro,
2003-07-27,1.15, -0.54, 7.80, 2.57, 1.70, 7.75, repro,
2003-07-28,2.40, 1.58, -2.12, 3.10, 2.09, 9.82, repro,
2003-07-29,-0.45, -1.02, 2.84, 2.60, 1.75, 7.98, repro,
2003-07-30,-1.40, 0.11, 1.41, 2.41, 1.64, 7.48, repro,
2003-07-31,1.16, -0.27, -4.28, 2.45, 1.66, 7.67, repro,
2003-08-01,-0.97, -0.28, 0.96, 2.49, 1.70, 7.74, repro,
2003-08-02,0.89, -2.01, 4.73, 2.44, 1.66, 7.56, repro,
2003-08-03,-0.56, -1.38, 8.05, 2.46, 1.66, 7.59, repro,
2003-08-04,-1.07, -0.93, 6.24, 2.40, 1.63, 7.46, repro,
2003-08-05,-0.13, -0.92, 8.84, 2.37, 1.62, 7.42, repro,
2003-08-06,-0.11, -1.07, 0.43, 2.39, 1.63, 7.45, repro,
2003-08-07,-1.01, -1.32, 3.33, 2.37, 1.61, 7.36, repro,
2003-08-08,1.41, -0.84, 5.51, 2.36, 1.60, 7.32, repro,
2003-08-09,1.34, -1.23, 0.60, 2.38, 1.61, 7.39, repro,
2003-08-10,0.09, 0.30, 7.06, 2.37, 1.61, 7.40, repro,
2003-08-11,0.14, 0.87, 5.63, 2.37, 1.61, 7.36, repro,
2003-08-12,-0.06, -0.09, -3.16, 2.39, 1.62, 7.41, repro,
2003-08-13,0.43, -1.30, 1.54, 2.39, 1.62, 7.41, repro,
2003-08-14,-0.07, 0.51, 8.88, 2.36, 1.61, 7.33, repro,
2003-08-15,0.55, 1.63, 9.43, 2.39, 1.60, 7.38, repro,
2003-08-16,1.01, 0.65, 7.70, 2.38, 1.62, 7.44, repro,
2003-08-17,-0.27, -0.49, 9.13, 2.35, 1.59, 7.30, repro,
2003-08-18,-1.83, -1.01, 17.55, 2.45, 1.65, 7.63, repro,
2003-08-19,-0.01, -0.74, 14.73, 2.39, 1.61, 7.38, repro,
2003-08-20,0.10, 0.36, 15.90, 2.35, 1.59, 7.27, repro,
2003-08-21,-0.14, -0.49, 11.39, 2.38, 1.61, 7.39, repro,
2003-08-22,0.42, -1.38, 22.43, 2.45, 1.64, 7.64, repro,
2003-08-23,-1.05, 0.04, 8.69, 2.38, 1.61, 7.40, repro,
2003-08-24,1.07, 0.55, 10.09, 2.41, 1.62, 7.46, repro,
2003-08-25,0.83, -0.85, 18.92, 2.35, 1.60, 7.32, repro,
2003-08-26,-3.15, 0.86, 19.91, 2.37, 1.62, 7.45, repro,
2003-08-27,0.83, 0.22, 14.65, 2.38, 1.59, 7.36, repro,
2003-08-28,0.46, 0.51, 5.11, 2.39, 1.61, 7.42, repro,
2003-08-29,0.68, 0.54, 5.81, 2.35, 1.58, 7.21, repro,
2003-08-30,0.81, 0.02, 6.68, 2.34, 1.57, 7.22, repro,
2003-08-31,-0.82, 1.20, 12.15, 2.31, 1.57, 7.11, repro,
2003-09-01,-2.83, 1.23, 14.92, 2.36, 1.61, 7.30, repro,
2003-09-02,1.14, 0.88, 14.83, 2.36, 1.58, 7.27, repro,
2003-09-03,0.72, -0.11, 13.29, 2.37, 1.59, 7.31, repro,
2003-09-04,0.39, 0.42, 12.79, 2.36, 1.58, 7.26, repro,
2003-09-05,0.38, 1.69, 13.83, 2.36, 1.58, 7.27, repro,
2003-09-06,0.18, 0.23, 16.38, 2.32, 1.59, 7.23, repro,
2003-09-07,-1.43, 0.57, 15.26, 2.38, 1.61, 7.39, repro,
2003-09-08,0.92, 0.90, 13.17, 2.40, 1.61, 7.42, repro,
2003-09-09,-0.12, 0.66, 17.81, 2.37, 1.57, 7.27, repro,
2003-09-10,0.31, 0.83, 15.53, 2.38, 1.58, 7.32, repro,
2003-09-11,-2.49, 0.19, 13.38, 2.34, 1.59, 7.28, repro,
2003-09-12,0.98, 0.04, 7.42, 2.36, 1.59, 7.30, repro,
2003-09-13,-0.76, -0.48, 10.20, 2.41, 1.65, 7.50, repro,
2003-09-14,1.06, 0.70, 26.06, 2.40, 1.60, 7.34, repro,
2003-09-15,-1.38, -0.68, 3.92, 2.35, 1.57, 7.22, repro,
2003-09-16,-0.64, -1.67, 13.91, 2.37, 1.59, 7.31, repro,
2003-09-17,0.03, 0.04, 8.70, 2.33, 1.58, 7.20, repro,
2003-09-18,0.70, 1.90, 10.68, 2.37, 1.61, 7.35, repro,
2003-09-19,0.52, -0.21, 11.62, 2.43, 1.64, 7.61, repro,
2003-09-20,1.57, 0.91, 4.83, 2.40, 1.63, 7.44, repro,
2003-09-21,0.95, 0.31, 3.47, 2.46, 1.67, 7.53, repro,
2003-09-22,2.41, -0.09, 9.09, 2.48, 1.74, 7.85, repro,
2003-09-23,0.27, 0.06, 7.97, 2.40, 1.61, 7.35, repro,
2003-09-24,1.67, 1.04, 10.38, 2.46, 1.66, 7.70, repro,
2003-09-25,1.63, 0.57, 6.68, 2.51, 1.67, 7.75, repro,
2003-09-26,2.40, -0.49, 7.46, 2.51, 1.69, 7.76, repro,
2003-09-27,0.92, -0.39, 10.83, 2.48, 1.69, 7.73, repro,
2003-09-28,0.53, 0.74, 14.32, 2.45, 1.64, 7.56, repro,
2003-09-29,0.03, 0.65, 21.85, 2.52, 1.70, 7.78, repro,
2003-09-30,-0.73, 1.02, 12.41, 2.54, 1.71, 7.85, repro,
2003-10-01,1.08, 0.53, 13.32, 2.57, 1.76, 8.05, repro,
2003-10-02,-0.42, 0.42, 15.56, 3.06, 2.29, 10.24, repro,
2003-10-03,-0.12, 0.11, 16.20, 2.44, 1.63, 7.47, repro,
2003-10-04,-2.30, 0.39, 15.14, 2.56, 1.66, 7.74, repro,
2003-10-05,1.21, 0.57, 17.38, 2.50, 1.67, 7.62, repro,
2003-10-06,0.19, 0.47, 18.20, 2.54, 1.70, 7.77, repro,
2003-10-07,-3.25, 3.07, 33.00, 2.67, 1.78, 8.15, repro,
2003-10-08,-2.75, -0.15, 10.63, 2.56, 1.75, 7.95, repro,
2003-10-09,-2.90, 0.05, 10.89, 2.53, 1.71, 7.85, repro,
2003-10-10,0.39, -1.34, 10.00, 2.50, 1.70, 7.75, repro,
2003-10-11,0.21, -1.15, 16.22, 2.46, 1.66, 7.54, repro,
2003-10-12,-2.91, -3.86, -0.99, 3.05, 2.25, 9.94, repro,
2003-10-13,1.61, -0.50, 10.25, 2.42, 1.61, 7.38, repro,
2003-10-14,1.29, 0.13, 11.09, 2.54, 1.69, 7.68, repro,
2003-10-15,1.25, -1.01, 7.45, 2.40, 1.63, 7.47, repro,
2003-10-16,0.52, -0.58, 2.09, 2.38, 1.62, 7.42, repro,
2003-10-17,-0.53, -5.17, 1.71, 2.42, 1.63, 7.55, repro,
2003-10-18,1.62, -3.66, -17.41, 2.44, 1.65, 7.59, repro,
2003-10-19,-0.86, 0.40, 4.38, 2.34, 1.60, 7.28, repro,
2003-10-20,1.38, -1.96, -1.79, 2.47, 1.70, 7.81, repro,
2003-10-21,-0.06, -1.61, -2.46, 2.40, 1.64, 7.49, repro,
2003-10-22,1.91, -1.40, -3.01, 2.54, 1.70, 7.86, repro,
2003-10-23,2.98, 2.89, 6.34, 2.41, 1.63, 7.37, repro,
2003-10-24,0.56, 0.94, 1.02, 2.45, 1.67, 7.60, repro,
2003-10-25,0.27, 1.08, -4.77, 2.34, 1.60, 7.28, repro,
2003-10-26,0.38, -0.09, -9.09, 2.44, 1.69, 7.71, repro,
2003-10-27,1.13, 0.96, 4.82, 2.37, 1.59, 7.33, repro,
2003-10-28,4.14, -0.42, 9.40, 2.34, 1.59, 7.29, repro,
2003-10-29,0.51, 0.40, 10.01, 2.68, 1.90, 9.03, repro,
2003-10-30,0.54, 1.22, -5.93, 2.66, 1.84, 8.53, repro,
2003-10-31,1.74, 1.71, -0.56, 2.41, 1.61, 7.37, repro,
2003-11-01,0.09, 1.38, 2.57, 2.36, 1.60, 7.32, repro,
2003-11-02,2.42, 2.05, 3.21, 2.33, 1.58, 7.19, repro,
2003-11-03,2.82, 1.99, 7.47, 2.37, 1.61, 7.38, repro,
2003-11-04,-0.18, 2.75, 6.20, 2.83, 2.12, 9.57, repro,
2003-11-05,0.44, 2.50, 2.76, 2.32, 1.58, 7.20, repro,
2003-11-06,0.52, 1.64, 0.48, 2.95, 2.33, 9.94, repro,
2003-11-07,2.64, 2.40, 6.07, 2.36, 1.59, 7.30, repro,
2003-11-08,2.31, 2.11, 5.06, 2.38, 1.62, 7.39, repro,
2003-11-09,0.69, 1.16, 8.32, 2.35, 1.64, 7.40, repro,
2003-11-10,0.05, 2.11, 11.00, 2.45, 1.70, 7.71, repro,
2003-11-11,1.07, 1.01, 17.98, 2.44, 1.66, 7.58, repro,
2003-11-12,1.18, 1.78, 1.01, 2.43, 1.62, 7.53, repro,
2003-11-13,0.59, 1.82, 3.87, 2.49, 1.67, 7.59, repro,
2003-11-14,1.40, 0.80, 15.93, 2.54, 1.69, 7.71, repro,
2003-11-15,0.19, 2.30, 13.89, 3.04, 2.41, 10.25, repro,
2003-11-16,0.77, 2.17, 7.57, 2.39, 1.62, 7.42, repro,
2003-11-17,3.77, 0.66, 16.57, 2.49, 1.70, 7.78, repro,
2003-11-18,-1.19, -1.54, 0.47, 2.53, 1.72, 7.87, repro,
2003-11-19,1.22, 1.55, 8.21, 2.43, 1.64, 7.54, repro,
2003-11-20,-1.43, -0.08, 8.66, 2.80, 1.96, 9.03, repro,
2003-11-21,0.46, 2.14, 2.24, 2.47, 1.69, 7.74, repro,
2003-11-22,0.57, 2.68, 2.01, 2.52, 1.83, 8.17, repro,
2003-11-23,-0.57, 2.96, 0.82, 2.50, 1.77, 8.04, repro,
2003-11-24,1.29, 4.14, 10.62, 2.35, 1.62, 7.39, repro,
2003-11-25,0.37, 2.33, 12.44, 2.52, 1.69, 7.91, repro,
2003-11-26,-0.19, 3.36, 8.62, 2.29, 1.58, 7.17, repro,
2003-11-27,0.69, 3.57, 4.33, 2.35, 1.62, 7.41, repro,
2003-11-28,-0.30, -0.63, -0.94, 2.44, 1.66, 7.68, repro,
2003-11-29,1.64, 2.85, 1.42, 2.34, 1.61, 7.33, repro,
2003-11-30,0.09, 3.64, 2.53, 2.35, 1.63, 7.44, repro,
2003-12-01,1.87, 3.36, 3.19, 2.30, 1.59, 7.24, repro,
2003-12-02,0.14, 4.07, -5.35, 2.44, 1.67, 7.48, repro,
2003-12-03,0.64, 3.65, 5.33, 2.47, 1.69, 7.60, repro,
2003-12-04,1.56, 1.05, -1.20, 2.50, 1.73, 7.98, repro,
2003-12-05,-6.32, 2.42, 3.66, 2.44, 1.69, 7.80, repro,
2003-12-06,2.59, 5.82, 8.25, 2.31, 1.60, 7.26, repro,
2003-12-07,4.90, 1.85, 5.34, 2.50, 1.66, 7.70, repro,
2003-12-08,2.68, 2.65, 3.34, 2.63, 1.80, 8.11, repro,
2003-12-09,0.97, 2.67, -7.76, 2.64, 1.76, 8.06, repro,
2003-12-10,1.62, 4.06, 3.09, 2.40, 1.67, 7.61, repro,
2003-12-11,1.33, 3.84, 8.66, 2.50, 1.74, 7.99, repro,
2003-12-12,1.55, 5.11, 5.64, 2.39, 1.66, 7.47, repro,
2003-12-13,-0.69, 1.30, 6.91, 2.42, 1.67, 7.60, repro,
2003-12-14,-1.00, -0.95, 5.95, 2.40, 1.67, 7.55, repro,
2003-12-15,1.36, 3.01, 3.15, 2.44, 1.67, 7.67, repro,
2003-12-16,0.77, -0.10, -4.93, 2.43, 1.67, 7.58, repro,
2003-12-17,3.57, 4.53, 3.86, 2.45, 1.67, 7.58, repro,
2003-12-18,0.44, 2.26, -7.00, 2.51, 1.79, 8.05, repro,
2003-12-19,0.73, 3.07, -2.63, 2.44, 1.73, 7.82, repro,
2003-12-20,4.41, 3.48, -2.36, 2.58, 1.80, 8.17, repro,
2003-12-21,3.09, 3.98, 14.95, 2.61, 1.86, 8.46, repro,
2003-12-22,2.54, 1.91, 2.99, 2.39, 1.65, 7.47, repro,
2003-12-23,1.41, 0.73, -2.61, 2.49, 1.70, 7.83, repro,
2003-12-24,-0.69, 1.33, 5.42, 2.46, 1.70, 7.82, repro,
2003-12-25,-1.44, 4.13, 9.23, 2.52, 1.79, 8.04, repro,
2003-12-26,1.64, 1.25, -2.97, 2.37, 1.65, 7.52, repro,
2003-12-27,4.74, 1.86, -9.85, 2.47, 1.68, 7.85, repro,
2003-12-28,2.70, 1.58, -1.00, 2.41, 1.65, 7.46, repro,
2003-12-29,2.10, 1.84, 3.86, 2.33, 1.61, 7.31, repro,
2003-12-30,-0.24, 1.70, 4.50, 2.36, 1.61, 7.39, repro,
2003-12-31,4.51, 1.42, 0.49, 2.35, 1.60, 7.30, repro,
2004-01-01,1.70, 1.52, 7.37, 2.47, 1.70, 7.78, repro,
2004-01-02,1.76, 1.67, 4.94, 2.36, 1.62, 7.45, repro,
2004-01-03,1.68, 1.58, 0.57, 2.36, 1.62, 7.37, repro,
2004-01-04,1.13, 2.62, -7.49, 2.35, 1.64, 7.47, repro,
2004-01-05,1.45, 1.87, -9.16, 2.36, 1.65, 7.60, repro,
2004-01-06,0.93, 2.37, 1.65, 2.44, 1.66, 7.58, repro,
2004-01-07,1.75, 3.15, -10.56, 2.37, 1.61, 7.40, repro,
2004-01-08,1.21, -1.45, -12.91, 2.40, 1.65, 7.63, repro,
2004-01-09,2.72, 2.16, -7.69, 2.40, 1.64, 7.53, repro,
2004-01-10,2.51, 3.39, 0.45, 2.37, 1.63, 7.51, repro,
2004-01-11,2.19, 2.01, 2.65, 2.42, 1.67, 7.57, repro,
2004-01-12,3.83, 2.11, -8.62, 2.44, 1.66, 7.54, repro,
2004-01-13,1.42, 2.94, -5.48, 2.40, 1.65, 7.42, repro,
2004-01-14,3.19, -0.11, -15.66, 2.42, 1.63, 7.42, repro,
2004-01-15,3.41, 2.77, -4.84, 2.41, 1.71, 7.73, repro,
2004-01-16,3.01, 1.77, -8.66, 2.47, 1.65, 7.52, repro,
2004-01-17,3.19, 3.15, -4.28, 2.35, 1.66, 7.50, repro,
2004-01-18,4.59, 3.49, 5.21, 2.42, 1.65, 7.47, repro,
2004-01-19,3.90, 2.04, 0.30, 2.37, 1.66, 7.50, repro,
2004-01-20,2.45, 1.62, -13.29, 2.47, 1.68, 7.47, repro,
2004-01-21,3.25, 2.28, -11.07, 2.36, 1.67, 7.41, repro,
2004-01-22,3.40, 2.98, -4.60, 2.44, 1.70, 7.63, repro,
2004-01-23,5.08, 1.83, 4.20, 2.33, 1.64, 7.38, repro,
2004-01-24,5.32, 1.77, -2.20, 2.53, 1.75, 7.97, repro,
2004-01-25,3.54, 2.30, 3.19, 2.45, 1.70, 7.53, repro,
2004-01-26,2.32, 3.27, 6.53, 2.58, 1.73, 7.89, repro,
2004-01-27,5.22, 2.54, -7.00, 2.67, 1.88, 8.37, repro,
2004-01-28,3.77, 1.63, 6.14, 2.49, 1.75, 7.88, repro,
2004-01-29,1.94, 3.50, 6.45, 2.37, 1.64, 7.38, repro,
2004-01-30,3.93, 3.06, 2.42, 2.38, 1.67, 7.44, repro,
2004-01-31,2.57, 4.23, 2.16, 2.40, 1.73, 7.72, repro,
2004-02-01,3.49, 2.43, -14.90, 2.36, 1.62, 7.28, repro,
2004-02-02,3.79, 3.43, -0.20, 2.29, 1.57, 7.08, repro,
2004-02-03,2.49, 3.20, 3.57, 2.30, 1.63, 7.30, repro,
2004-02-04,3.38, 3.67, -1.40, 2.27, 1.62, 7.22, repro,
2004-02-05,3.08, 3.02, -1.43, 2.33, 1.68, 7.51, repro,
2004-02-06,5.21, 3.15, 0.83, 2.34, 1.62, 7.30, repro,
2004-02-07,4.56, 3.72, 3.71, 2.32, 1.61, 7.26, repro,
2004-02-08,2.15, 4.98, -6.81, 2.29, 1.59, 7.15, repro,
2004-02-09,2.81, 4.34, -2.18, 2.28, 1.59, 7.16, repro,
2004-02-10,2.38, 4.02, 4.81, 2.29, 1.64, 7.34, repro,
2004-02-11,3.22, 3.47, -1.93, 2.34, 1.66, 7.47, repro,
2004-02-12,3.18, 3.52, -4.15, 2.37, 1.63, 7.50, repro,
2004-02-13,4.53, 2.51, 6.85, 2.38, 1.63, 7.47, repro,
2004-02-14,1.77, 3.81, 1.69, 2.35, 1.62, 7.45, repro,
2004-02-15,1.99, 3.36, 3.90, 2.38, 1.68, 7.64, repro,
2004-02-16,1.79, 4.55, 0.82, 2.35, 1.63, 7.46, repro,
2004-02-17,1.45, 1.23, -5.99, 2.40, 1.64, 7.61, repro,
2004-02-18,4.45, 1.96, 0.95, 2.38, 1.62, 7.49, repro,
2004-02-19,3.05, 3.08, 2.99, 2.36, 1.61, 7.43, repro,
2004-02-20,2.81, 3.53, 2.84, 2.34, 1.62, 7.40, repro,
2004-02-21,1.84, 2.84, -4.99, 2.28, 1.58, 7.11, repro,
2004-02-22,1.59, 2.58, 6.52, 2.37, 1.63, 7.32, repro,
2004-02-23,2.19, 3.06, 5.43, 2.37, 1.61, 7.31, repro,
2004-02-24,1.01, 3.46, 8.90, 2.34, 1.61, 7.23, repro,
2004-02-25,0.54, 2.02, 9.00, 2.35, 1.62, 7.32, repro,
2004-02-26,2.76, 2.58, 11.80, 2.35, 1.61, 7.28, repro,
2004-02-27,1.88, 1.44, 3.95, 2.33, 1.61, 7.28, repro,
2004-02-28,1.99, 2.62, -3.37, 2.36, 1.61, 7.32, repro,
2004-02-29,2.43, 2.83, -6.41, 2.35, 1.60, 7.29, repro,
2004-03-01,2.77, 3.75, 1.72, 2.34, 1.61, 7.27, repro,
2004-03-02,1.69, 2.92, 2.62, 2.34, 1.62, 7.29, repro,
2004-03-03,1.35, 2.80, 4.24, 2.40, 1.68, 7.53, repro,
2004-03-04,-0.08, 3.86, 6.16, 2.41, 1.68, 7.59, repro,
2004-03-05,-0.49, 1.55, 8.10, 2.43, 1.69, 7.63, repro,
2004-03-06,2.04, 2.01, 10.01, 2.33, 1.62, 7.30, repro,
2004-03-07,0.93, 5.27, 3.48, 2.37, 1.62, 7.37, repro,
2004-03-08,2.58, 4.60, 1.03, 2.43, 1.66, 7.51, repro,
2004-03-09,2.65, 0.86, -2.52, 2.44, 1.72, 7.84, repro,
2004-03-10,2.26, 2.18, -1.60, 2.38, 1.62, 7.38, repro,
2004-03-11,2.85, 2.11, -1.38, 2.34, 1.60, 7.24, repro,
2004-03-12,3.25, 3.64, 3.85, 2.36, 1.62, 7.33, repro,
2004-03-13,3.30, 2.61, -3.00, 2.39, 1.66, 7.45, repro,
2004-03-14,3.89, 2.05, -4.35, 2.37, 1.62, 7.32, repro,
2004-03-15,4.73, 1.81, -2.16, 2.38, 1.62, 7.33, repro,
2004-03-16,3.13, 2.55, 1.11, 2.38, 1.62, 7.33, repro,
2004-03-17,3.47, 3.21, 8.87, 2.46, 1.68, 7.71, repro,
2004-03-18,-0.42, 1.71, 2.21, 3.38, 2.17, 10.00, repro,
2004-03-19,3.43, 3.32, 5.96, 2.44, 1.68, 7.71, repro,
2004-03-20,3.50, 3.21, -7.46, 2.42, 1.66, 7.58, repro,
2004-03-21,2.58, 2.70, -0.43, 2.44, 1.66, 7.64, repro,
2004-03-22,5.18, 3.42, 7.45, 3.05, 1.91, 8.86, repro,
2004-03-23,3.05, 2.90, 4.91, 2.49, 1.69, 7.72, repro,
2004-03-24,1.63, 1.90, 6.54, 2.41, 1.67, 7.61, repro,
2004-03-25,2.83, 0.25, 0.70, 2.40, 1.66, 7.55, repro,
2004-03-26,2.62, 0.64, -0.12, 3.81, 2.91, 13.46, repro,
2004-03-27,2.15, 2.09, 2.71, 2.40, 1.66, 7.59, repro,
2004-03-28,2.53, 2.63, -4.60, 2.40, 1.65, 7.55, repro,
2004-03-29,1.16, 2.93, -6.57, 2.58, 1.79, 8.20, repro,
2004-03-30,-1.01, 2.92, -7.22, 2.41, 1.67, 7.47, repro,
2004-03-31,2.79, 2.56, 3.87, 2.35, 1.62, 7.29, repro,
2004-04-01,2.98, 2.49, -3.02, 2.46, 1.65, 7.44, repro,
2004-04-02,2.36, 2.85, -2.52, 2.34, 1.61, 7.23, repro,
2004-04-03,1.73, 3.68, 1.79, 2.40, 1.63, 7.41, repro,
2004-04-04,2.90, 2.99, 5.23, 2.40, 1.61, 7.34, repro,
2004-04-05,1.59, 1.98, -0.43, 2.38, 1.61, 7.34, repro,
2004-04-06,2.30, 3.04, 0.28, 2.33, 1.60, 7.19, repro,
2004-04-07,3.26, 2.44, 1.73, 2.34, 1.63, 7.28, repro,
2004-04-08,3.13, 2.51, 0.97, 2.33, 1.58, 7.16, repro,
2004-04-09,3.02, 2.98, -2.46, 2.32, 1.58, 7.17, repro,
2004-04-10,1.98, 3.05, -1.95, 2.35, 1.58, 7.18, repro,
2004-04-11,1.64, 3.26, 5.24, 2.34, 1.60, 7.22, repro,
2004-04-12,0.83, 2.48, -2.48, 2.32, 1.58, 7.15, repro,
2004-04-13,3.19, 2.51, 3.94, 2.36, 1.62, 7.39, repro,
2004-04-14,3.38, 1.97, 2.48, 2.37, 1.63, 7.50, repro,
2004-04-15,1.82, 0.57, 0.60, 2.32, 1.58, 7.16, repro,
2004-04-16,0.51, 2.00, -0.25, 2.33, 1.59, 7.22, repro,
2004-04-17,2.92, 2.26, 0.54, 2.38, 1.60, 7.37, repro,
2004-04-18,2.47, 3.98, 8.77, 2.32, 1.59, 7.18, repro,
2004-04-19,2.30, 2.81, 13.60, 2.32, 1.58, 7.18, repro,
2004-04-20,3.60, 2.46, 8.52, 2.32, 1.58, 7.21, repro,
2004-04-21,1.96, 2.16, 6.24, 2.33, 1.60, 7.24, repro,
2004-04-22,1.96, 2.89, 0.65, 2.32, 1.58, 7.16, repro,
2004-04-23,0.55, 2.37, -1.59, 2.32, 1.60, 7.24, repro,
2004-04-24,2.42, 2.98, 0.82, 2.32, 1.58, 7.17, repro,
2004-04-25,2.64, 2.82, 1.24, 2.31, 1.58, 7.19, repro,
2004-04-26,2.32, 2.41, -6.14, 2.33, 1.59, 7.19, repro,
2004-04-27,4.93, 2.95, 10.66, 2.33, 1.59, 7.21, repro,
2004-04-28,2.42, 1.28, -5.52, 2.46, 1.67, 7.52, repro,
2004-04-29,3.33, 2.16, -3.30, 2.33, 1.58, 7.17, repro,
2004-04-30,2.05, 2.78, -0.70, 2.37, 1.61, 7.39, repro,
2004-05-01,1.53, 2.52, 5.46, 2.41, 1.64, 7.51, repro,
2004-05-02,1.15, 6.21, 6.67, 2.39, 1.63, 7.50, repro,
2004-05-03,1.75, 2.55, 9.91, 2.43, 1.64, 7.59, repro,
2004-05-04,1.30, 3.43, 14.69, 2.42, 1.68, 7.64, repro,
2004-05-05,0.82, 2.32, 13.83, 2.45, 1.70, 7.80, repro,
2004-05-06,1.64, 2.39, 3.85, 2.34, 1.62, 7.34, repro,
2004-05-07,1.49, 3.08, 12.73, 2.35, 1.62, 7.39, repro,
2004-05-08,2.01, 3.04, 8.30, 2.35, 1.63, 7.40, repro,
2004-05-09,1.08, 2.82, 7.39, 2.48, 1.72, 7.83, repro,
2004-05-10,1.44, 3.96, 13.11, 2.36, 1.63, 7.41, repro,
2004-05-11,1.40, 2.46, 10.83, 2.32, 1.63, 7.34, repro,
2004-05-12,2.50, 2.18, 0.85, 2.32, 1.61, 7.27, repro,
2004-05-13,2.77, 2.65, 0.08, 2.33, 1.63, 7.37, repro,
2004-05-14,-0.03, 2.62, 3.93, 2.37, 1.64, 7.44, repro,
2004-05-15,1.98, 3.42, 15.39, 2.32, 1.62, 7.38, repro,
2004-05-16,0.71, 2.55, 8.69, 2.31, 1.62, 7.32, repro,
2004-05-17,0.66, 1.67, 9.51, 2.40, 1.67, 7.51, repro,
2004-05-18,1.36, 1.56, 6.47, 2.33, 1.62, 7.39, repro,
2004-05-19,2.83, 2.36, 6.01, 2.40, 1.61, 7.36, repro,
2004-05-20,1.57, 2.38, 12.15, 2.44, 1.63, 7.43, repro,
2004-05-21,1.86, 2.88, 9.26, 2.39, 1.63, 7.43, repro,
2004-05-22,0.70, 2.08, 8.38, 2.32, 1.58, 7.22, repro,
2004-05-23,0.87, 2.79, 7.30, 2.32, 1.57, 7.20, repro,
2004-05-24,2.63, 2.27, 2.48, 3.02, 1.95, 9.10, repro,
2004-05-25,3.14, 2.99, 16.04, 2.35, 1.61, 7.45, repro,
2004-05-26,0.12, 1.98, 13.83, 2.40, 1.63, 7.49, repro,
2004-05-27,2.23, 1.56, 16.80, 2.39, 1.62, 7.43, repro,
2004-05-28,-0.25, 2.05, 14.98, 2.37, 1.66, 7.44, repro,
2004-05-29,0.59, 3.55, 13.58, 2.35, 1.63, 7.38, repro,
2004-05-30,0.75, 2.11, 21.57, 2.58, 1.80, 8.38, repro,
2004-05-31,0.73, 2.19, 11.80, 2.30, 1.57, 7.19, repro,
2004-06-01,1.67, 2.69, 11.60, 2.35, 1.58, 7.32, repro,
2004-06-02,-0.06, 3.51, 2.20, 2.28, 1.58, 7.16, repro,
2004-06-03,-0.31, 3.25, 9.01, 2.29, 1.58, 7.23, repro,
2004-06-04,2.94, 3.12, 6.46, 2.33, 1.59, 7.28, repro,
2004-06-05,4.04, 2.65, 10.04, 2.33, 1.59, 7.28, repro,
2004-06-06,0.90, 5.00, 10.61, 2.31, 1.58, 7.20, repro,
2004-06-07,3.72, 2.30, 7.98, 2.31, 1.58, 7.20, repro,
2004-06-08,1.37, 3.24, 4.35, 2.32, 1.58, 7.25, repro,
2004-06-09,0.17, 2.68, 9.01, 2.32, 1.60, 7.32, repro,
2004-06-10,1.05, 2.23, 12.47, 2.29, 1.57, 7.18, repro,
2004-06-11,0.75, 3.02, 13.40, 2.31, 1.58, 7.23, repro,
2004-06-12,1.02, 2.21, 11.18, 2.86, 1.85, 8.51, repro,
2004-06-13,0.63, 3.60, 16.95, 2.32, 1.60, 7.29, repro,
2004-06-14,1.59, 0.32, 4.56, 2.38, 1.66, 7.56, repro,
2004-06-15,1.62, 2.46, 2.76, 2.37, 1.61, 7.35, repro,
2004-06-16,2.24, 3.20, 7.36, 2.39, 1.62, 7.37, repro,
2004-06-17,1.50, 4.50, 1.15, 2.38, 1.64, 7.39, repro,
2004-06-18,1.76, 2.64, -1.77, 2.41, 1.61, 7.37, repro,
2004-06-19,2.94, 1.77, 0.37, 2.32, 1.58, 7.24, repro,
2004-06-20,1.36, 2.91, 4.67, 2.32, 1.59, 7.29, repro,
2004-06-21,2.67, 2.61, 9.33, 2.32, 1.58, 7.24, repro,
2004-06-22,0.96, 1.13, 10.22, 2.99, 1.94, 9.20, repro,
2004-06-23,2.38, 2.40, 5.35, 2.36, 1.60, 7.32, repro,
2004-06-24,2.56, 2.73, 1.98, 2.34, 1.59, 7.30, repro,
2004-06-25,2.13, 2.54, 7.41, 2.35, 1.60, 7.40, repro,
2004-06-26,2.66, 2.11, 4.00, 2.37, 1.63, 7.43, repro,
2004-06-27,2.71, 2.37, 6.25, 2.33, 1.61, 7.35, repro,
2004-06-28,2.36, 2.10, 13.86, 2.33, 1.59, 7.30, repro,
2004-06-29,2.66, 0.40, 10.55, 2.35, 1.62, 7.49, repro,
2004-06-30,2.72, 0.79, 8.21, 2.36, 1.60, 7.38, repro,
2004-07-01,3.05, 0.18, 5.50, 2.30, 1.59, 7.36, repro,
2004-07-02,2.78, 2.88, 3.23, 2.34, 1.60, 7.40, repro,
2004-07-03,3.92, 1.14, 5.76, 2.35, 1.59, 7.32, repro,
2004-07-04,1.80, 1.46, 6.58, 2.29, 1.58, 7.24, repro,
2004-07-05,2.67, 1.32, 11.75, 2.31, 1.59, 7.30, repro,
2004-07-06,3.70, 0.25, 3.33, 2.27, 1.58, 7.23, repro,
2004-07-07,5.09, 1.53, 9.97, 2.49, 1.73, 7.79, repro,
2004-07-08,1.87, 0.50, 10.72, 2.36, 1.61, 7.37, repro,
2004-07-09,1.67, 1.38, 8.37, 2.37, 1.61, 7.33, repro,
2004-07-10,0.29, 1.95, 9.32, 2.35, 1.63, 7.40, repro,
2004-07-11,2.23, 2.07, 5.68, 2.38, 1.61, 7.40, repro,
2004-07-12,3.26, 2.32, 10.13, 2.31, 1.59, 7.27, repro,
2004-07-13,1.83, 1.17, 8.67, 2.31, 1.61, 7.29, repro,
2004-07-14,2.82, 1.66, 7.48, 2.29, 1.58, 7.20, repro,
2004-07-15,1.00, 0.92, 5.44, 2.39, 1.63, 7.45, repro,
2004-07-16,3.37, 2.39, 2.47, 2.47, 1.72, 7.91, repro,
2004-07-17,2.19, 2.23, 8.17, 2.38, 1.64, 7.47, repro,
2004-07-18,1.04, 1.82, 14.96, 2.28, 1.58, 7.16, repro,
2004-07-19,3.52, 2.68, 18.21, 2.30, 1.62, 7.38, repro,
2004-07-20,2.68, 4.33, 18.05, 2.35, 1.63, 7.46, repro,
2004-07-21,-0.86, 1.73, 10.56, 2.36, 1.64, 7.24, repro,
2004-07-22,-0.05, 0.79, 5.63, 2.27, 1.60, 7.21, repro,
2004-07-23,0.45, -0.96, 11.87, 2.29, 1.59, 7.20, repro,
2004-07-24,-1.27, -0.61, 7.24, 2.29, 1.60, 7.26, repro,
2004-07-25,0.23, -2.03, 14.39, 2.32, 1.62, 7.35, repro,
2004-07-26,-1.24, -0.71, 12.56, 2.28, 1.59, 7.16, repro,
2004-07-27,0.44, -1.66, 13.12, 2.32, 1.62, 7.34, repro,
2004-07-28,-0.83, -2.75, 9.95, 2.29, 1.61, 7.26, repro,
2004-07-29,-0.41, -2.39, 11.47, 2.27, 1.59, 7.16, repro,
2004-07-30,0.76, -1.43, 13.70, 2.28, 1.58, 7.10, repro,
2004-07-31,-0.24, -0.89, 13.50, 2.29, 1.59, 7.18, repro,
2004-08-01,-0.27, -1.61, 6.78, 2.28, 1.57, 7.11, repro,
2004-08-02,0.68, -1.83, 5.14, 2.29, 1.59, 7.25, repro,
2004-08-03,-0.94, -1.67, 20.40, 2.37, 1.61, 7.34, repro,
2004-08-04,-2.36, -1.03, 11.93, 2.33, 1.61, 7.30, repro,
2004-08-05,-0.95, -2.96, 12.32, 2.28, 1.61, 7.29, repro,
2004-08-06,-1.72, -1.63, 9.14, 2.29, 1.60, 7.25, repro,
2004-08-07,-1.14, -0.53, 10.76, 2.32, 1.59, 7.25, repro,
2004-08-08,-1.68, -0.74, 9.77, 2.30, 1.59, 7.23, repro,
2004-08-09,0.27, -0.47, 8.75, 2.28, 1.59, 7.14, repro,
2004-08-10,-0.57, -0.98, 3.67, 2.27, 1.58, 7.07, repro,
2004-08-11,-0.10, -1.18, 4.54, 2.28, 1.57, 7.12, repro,
2004-08-12,-0.14, -1.14, -2.24, 2.31, 1.60, 7.27, repro,
2004-08-13,0.81, -1.66, 3.32, 2.34, 1.62, 7.39, repro,
2004-08-14,-0.03, -1.19, 10.98, 2.27, 1.57, 7.08, repro,
2004-08-15,-1.56, -1.22, 10.68, 2.28, 1.57, 7.08, repro,